Wind_Speed
47 51 45 37 43 46 48 48 48 40 36 49 50 53 46 39 37 37 35 35 34 34 29 31 34 37 38 37 35 37 37 35 36 36 34 37 37 36 36 36 37 35 35 34
48 53 42 45 46 48 49 50 51 50 47 52 50 52 48 44 38 32 35 33 33 36 34 33 36 41 41 40 37 38 38 39 38 36 36 33 36 37 38 38 38 38 38 37
48 51 49 48 50 49 49 53 52 54 49 51 55 55 48 39 37 29 29 33 32 32 35 39 42 43 44 43 43 44 43 43 42 40 40 40 39 42 41 41 42 41 40 40
53 46 48 50 52 42 51 43 48 52 53 55 49 54 46 41 40 37 33 29 32 34 38 38 42 45 47 42 43 44 46 47 47 46 45 44 44 48 48 48 46 43 42 39
47 43 44 50 49 49 50 52 52 53 55 57 56 59 60 56 51 41 38 34 28 32 32 37 41 42 46 47 47 47 49 49 50 50 49 50 48 48 47 48 47 44 41 40
45 46 49 48 49 50 49 52 54 57 60 61 58 55 56 61 62 57 54 51 53 48 44 42 40 47 47 47 50 52 52 52 51 48 46 48 51 52 53 51 47 43 43 42
49 50 50 50 53 55 53 51 57 61 64 65 66 65 67 64 65 66 63 62 63 60 56 52 50 47 52 50 54 51 52 51 56 56 55 52 53 52 55 56 53 49 47 46
59 59 57 53 53 55 61 62 61 67 70 69 67 72 68 65 65 69 70 69 68 67 64 62 61 60 56 55 53 53 54 53 53 61 60 61 55 52 52 54 53 53 53 50
70 64 64 62 63 63 60 61 56 62 63 69 77 74 70 67 69 71 71 74 73 69 68 63 61 58 55 58 51 44 46 50 55 59 65 68 63 55 53 53 55 56 57 55
66 71 71 71 68 71 69 65 63 63 62 66 72 74 76 69 71 69 70 70 70 69 63 65 67 59 30 39 46 47 51 55 59 61 59 50 53 61 60 58 58 60 61 61
72 73 76 77 77 72 70 72 74 71 69 71 74 77 77 71 69 68 64 65 65 64 65 51 49 40 45 53 53 50 51 49 44 45 48 51 57 62 67 64 64 66 66 65
72 69 76 83 81 79 80 80 79 80 81 78 76 81 75 73 73 71 64 61 58 66 65 62 61 51 40 48 51 53 58 53 57 61 61 62 65 67 68 72 71 70 67 64
71 69 67 79 84 82 78 77 73 75 75 81 86 88 77 78 81 75 68 65 65 68 73 79 69 58 62 53 53 57 66 66 71 67 74 76 69 65 69 74 74 71 71 69
71 76 79 76 79 79 73 71 73 74 77 82 81 81 77 73 71 70 68 78 82 86 86 80 79 69 67 67 59 56 60 67 73 79 78 76 75 72 72 76 79 72 67 64
68 68 73 75 68 65 74 69 64 70 68 65 71 69 65 69 70 78 79 77 77 80 82 81 81 80 74 71 71 67 61 61 63 61 62 65 70 74 79 76 78 72 65 61
66 64 67 75 74 71 67 63 63 63 66 73 66 68 69 70 63 64 70 76 79 85 81 79 80 81 91 93 87 87 81 76 74 74 60 58 58 67 72 75 77 71 70 67
70 70 71 79 73 69 81 68 71 75 79 85 85 85 81 69 65 58 58 58 66 73 78 85 89 93 92 82 78 78 79 76 75 73 74 64 61 58 61 61 68 66 66 67
72 72 74 81 76 84 80 78 85 87 87 87 88 88 83 74 63 79 71 66 63 63 66 69 74 75 78 77 76 76 80 78 78 79 75 66 70 65 67 70 72 72 70 73
73 73 78 81 83 86 83 82 83 84 85 87 88 87 87 95 96 94 96 93 94 93 93 89 85 74 76 80 84 78 84 89 90 90 82 79 76 76 74 82 78 70 71 71
73 75 78 79 82 86 83 81 82 84 87 88 87 89 89 87 86 81 82 83 83 82 85 89 91 92 80 77 75 77 79 84 85 85 86 80 76 67 65 66 66 70 75 76
71 71 72 73 77 80 77 77 78 79 82 85 86 86 85 83 79 68 71 58 59 66 77 79 86 83 73 76 66 67 72 80 80 81 76 64 62 61 61 62 68 78 80 76
67 68 68 70 73 77 73 73 73 77 78 79 81 84 88 91 92 94 89 85 93 96 92 84 73 77 74 76 75 72 75 81 77 82 82 73 59 60 62 64 69 80 80 71
67 64 68 70 72 71 67 68 69 71 73 74 79 81 82 85 87 89 92 95 101 110 98 88 82 77 71 85 84 84 91 80 66 63 75 79 72 59 66 68 67 70 60 55
63 62 68 68 66 66 66 64 64 67 69 71 74 79 86 88 89 91 92 92 95 97 101 101 94 91 81 82 77 82 77 80 74 73 70 73 72 69 67 72 71 65 66 58
59 60 61 65 66 62 63 64 62 62 61 62 66 70 75 81 86 92 94 95 97 97 97 97 98 97 97 98 98 101 96 89 85 83 76 79 77 73 70 76 71 70 68 67
58 59 58 60 56 51 58 57 53 53 56 58 60 60 63 68 73 77 81 84 88 92 94 96 98 98 97 108 114 116 102 96 93 85 84 87 84 88 76 86 79 74 71 78
Wind_Direction
274 275 279 286 279 279 280 282 283 288 288 282 279 278 281 277 272 281 280 276 274 272 268 267 269 270 270 272 272 269 268 267 269 270 275 275 273 271 273 270 266 262 263 266
274 274 279 272 273 275 280 285 284 286 285 277 281 281 284 287 289 287 282 278 272 271 268 263 266 270 272 271 272 266 265 264 266 271 272 274 266 271 275 274 270 267 267 269
268 274 273 273 272 274 277 278 283 279 279 279 285 282 284 287 292 285 283 280 278 274 269 271 274 272 271 276 272 267 266 266 266 268 270 270 268 268 273 272 268 268 269 271
268 272 273 271 271 277 271 273 272 277 278 282 278 288 291 295 291 291 285 278 275 275 274 272 273 274 275 270 269 269 266 267 266 268 269 268 265 264 265 267 270 270 269 270
274 273 271 270 273 269 271 270 271 273 276 278 277 288 297 298 293 294 297 288 279 274 270 271 275 275 275 276 273 271 270 267 269 271 273 272 267 265 266 268 267 267 268 270
268 271 273 271 268 270 269 268 268 268 273 273 280 286 284 290 294 297 292 293 290 280 279 278 271 272 274 272 274 275 276 276 272 268 264 263 264 266 271 271 268 269 270 271
271 274 275 273 270 272 270 271 271 270 270 277 281 278 275 285 289 287 290 290 287 287 290 287 283 276 272 276 274 271 270 275 276 276 271 266 264 266 269 271 270 269 267 270
276 273 274 274 274 271 275 276 272 276 278 277 275 271 275 281 282 284 285 284 287 292 291 284 284 285 282 279 275 271 270 267 267 269 272 271 266 263 263 266 267 267 269 269
274 274 279 279 278 278 278 274 279 273 271 273 274 274 276 279 282 283 283 288 292 290 288 289 288 288 281 280 274 267 261 262 261 261 261 263 269 268 264 263 266 269 270 272
273 273 274 273 276 275 276 275 274 272 273 269 270 271 278 283 285 283 285 287 286 284 288 289 287 284 264 266 266 266 260 246 247 246 250 256 264 268 265 266 271 272 274 275
276 275 271 273 274 276 274 271 270 268 265 269 269 269 281 280 277 278 281 279 279 283 283 280 282 271 267 272 266 264 249 237 241 247 251 255 264 268 265 265 270 272 272 272
276 274 274 269 268 273 274 274 273 273 276 277 277 275 274 274 279 280 278 277 274 277 276 270 268 267 267 262 250 250 243 231 233 246 256 270 268 266 259 263 269 270 272 270
276 275 274 274 274 275 276 279 278 277 274 274 277 279 282 278 274 274 275 273 276 268 272 272 259 265 263 258 257 255 243 246 249 255 261 260 264 262 261 263 266 268 268 267
271 272 276 278 280 278 278 279 279 277 274 277 277 283 281 278 274 269 262 266 264 262 266 266 265 261 266 263 258 261 257 262 265 265 268 266 266 261 261 262 262 265 261 261
272 273 272 272 272 268 275 277 274 272 275 277 283 281 282 280 275 267 264 260 259 260 266 258 257 257 269 271 272 266 272 275 266 272 276 273 268 266 262 262 265 256 256 256
272 265 267 267 270 275 267 257 259 265 278 270 268 274 270 269 265 268 265 263 262 258 258 257 259 260 269 275 275 278 276 273 266 272 260 264 273 269 265 260 260 253 258 259
272 273 273 272 273 266 256 259 264 272 274 268 269 272 270 269 272 265 263 260 260 261 262 264 264 263 266 271 270 269 265 261 261 262 264 260 262 260 261 264 260 256 254 256
274 274 275 275 273 270 274 269 269 271 272 273 272 273 268 266 262 266 261 259 260 264 271 264 265 265 266 267 269 266 256 251 251 252 252 252 260 253 258 255 255 257 261 263
272 272 274 275 276 277 276 277 277 276 275 274 274 274 270 263 262 267 269 267 270 272 276 272 268 265 268 270 272 268 260 254 253 255 260 259 254 250 253 255 261 264 268 270
270 271 271 271 273 275 276 277 277 278 277 276 275 274 274 275 275 274 275 274 271 272 271 271 269 266 267 263 265 264 264 266 266 264 264 263 262 259 259 261 268 268 268 270
271 270 269 272 273 274 277 276 276 273 274 274 275 274 273 269 271 268 259 259 270 277 270 268 267 260 264 255 258 267 265 263 264 262 252 252 255 261 267 275 280 281 275 271
273 272 273 273 273 274 276 274 273 272 272 273 273 271 270 268 265 261 257 257 265 269 264 268 264 270 268 262 259 266 268 263 258 257 250 248 260 272 273 278 283 280 275 274
274 276 278 275 278 279 280 278 276 275 275 272 271 270 269 268 268 268 268 265 262 261 267 269 264 263 261 258 256 259 261 252 260 260 253 253 259 269 271 272 274 273 269 271
274 276 276 278 279 281 280 279 279 277 275 274 272 272 272 272 272 272 272 270 269 268 268 266 262 256 254 248 248 258 258 257 267 268 266 266 268 265 268 264 261 263 262 259
281 280 283 281 283 284 281 281 282 282 281 279 276 276 276 276 274 274 273 273 272 271 270 269 267 261 253 250 255 265 269 264 260 262 262 269 270 263 263 257 258 256 252 260
285 285 283 285 287 288 287 288 288 289 288 288 286 282 283 283 279 278 277 277 277 276 274 272 270 267 261 256 252 259 265 263 261 259 261 266 264 258 260 253 251 252 251 252
Height
5803 5799 5803 5808 5800 5795 5790 5788 5785 5792 5794 5780 5776 5769 5775 5784 5785 5786 5786 5785 5784 5783 5785 5781 5778 5775 5774 5774 5774 5773 5772 5772 5772 5772 5772 5771 5771 5769 5769 5768 5768 5769 5769 5769
5795 5788 5799 5792 5790 5788 5785 5782 5779 5779 5781 5769 5766 5759 5765 5769 5775 5779 5775 5775 5775 5774 5775 5774 5771 5767 5765 5765 5765 5764 5763 5762 5762 5762 5762 5762 5761 5761 5760 5760 5760 5760 5760 5760
5783 5781 5785 5783 5779 5779 5779 5773 5772 5763 5766 5763 5757 5745 5756 5763 5764 5767 5768 5765 5766 5766 5766 5764 5760 5758 5756 5756 5753 5753 5751 5750 5751 5752 5751 5751 5751 5751 5751 5751 5749 5749 5749 5749
5769 5775 5772 5770 5767 5769 5763 5766 5761 5759 5754 5746 5752 5729 5742 5756 5758 5758 5758 5758 5756 5755 5753 5753 5752 5749 5745 5743 5742 5742 5741 5741 5739 5740 5741 5740 5740 5738 5738 5737 5737 5738 5738 5737
5763 5762 5761 5759 5761 5754 5754 5752 5752 5751 5747 5740 5734 5735 5727 5734 5742 5745 5750 5750 5751 5748 5746 5743 5740 5737 5736 5734 5733 5731 5729 5728 5728 5729 5729 5728 5729 5727 5725 5725 5725 5726 5726 5725
5751 5750 5745 5747 5746 5745 5741 5739 5738 5736 5735 5730 5732 5733 5717 5720 5720 5726 5731 5733 5731 5732 5733 5734 5733 5728 5723 5721 5720 5719 5718 5717 5716 5715 5713 5714 5715 5716 5716 5714 5713 5713 5714 5713
5735 5736 5736 5734 5730 5733 5731 5727 5722 5719 5719 5721 5721 5723 5713 5715 5715 5712 5711 5713 5711 5714 5716 5713 5711 5713 5715 5712 5709 5704 5703 5704 5704 5704 5702 5702 5701 5701 5702 5703 5702 5702 5700 5699
5715 5722 5720 5720 5720 5716 5715 5714 5709 5701 5705 5702 5704 5696 5704 5709 5708 5705 5701 5696 5695 5697 5699 5700 5695 5693 5692 5693 5693 5692 5692 5690 5689 5688 5689 5687 5685 5686 5685 5686 5686 5686 5686 5685
5698 5702 5703 5702 5702 5704 5702 5695 5699 5684 5687 5678 5683 5688 5694 5697 5696 5693 5689 5685 5686 5685 5677 5676 5675 5674 5676 5676 5675 5675 5677 5678 5676 5676 5673 5673 5674 5673 5672 5671 5670 5669 5669 5670
5683 5681 5682 5684 5688 5683 5680 5681 5674 5668 5660 5659 5667 5668 5674 5684 5680 5679 5677 5674 5670 5663 5663 5659 5657 5656 5658 5657 5656 5658 5658 5657 5658 5657 5657 5659 5660 5659 5657 5656 5655 5654 5653 5653
5663 5659 5669 5662 5662 5668 5665 5660 5657 5654 5647 5638 5637 5644 5672 5664 5662 5661 5661 5656 5656 5648 5647 5643 5640 5639 5642 5645 5644 5642 5645 5643 5645 5643 5643 5644 5645 5645 5644 5642 5639 5639 5637 5637
5642 5636 5635 5642 5648 5644 5637 5638 5636 5627 5627 5622 5612 5607 5655 5654 5646 5643 5647 5643 5639 5633 5627 5625 5624 5624 5627 5628 5626 5625 5623 5625 5624 5625 5627 5628 5631 5628 5627 5627 5624 5622 5622 5620
5626 5617 5608 5618 5629 5627 5616 5626 5618 5613 5605 5595 5588 5587 5621 5625 5629 5630 5625 5618 5614 5608 5606 5604 5603 5600 5604 5607 5606 5607 5607 5608 5605 5602 5606 5608 5610 5609 5608 5608 5607 5605 5603 5602
5606 5605 5597 5593 5602 5610 5593 5596 5599 5594 5580 5574 5571 5571 5586 5593 5595 5601 5603 5588 5581 5577 5578 5584 5584 5583 5582 5587 5591 5591 5596 5594 5588 5587 5589 5590 5589 5588 5588 5588 5588 5588 5583 5582
5588 5584 5582 5579 5583 5582 5576 5575 5578 5572 5566 5558 5556 5555 5561 5563 5561 5562 5564 5565 5563 5558 5561 5563 5565 5565 5562 5565 5568 5571 5570 5568 5568 5566 5567 5568 5565 5566 5566 5569 5568 5567 5566 5566
5568 5564 5559 5556 5567 5562 5555 5555 5559 5551 5552 5542 5540 5535 5531 5536 5537 5537 5535 5539 5541 5540 5540 5540 5544 5546 5546 5542 5544 5546 5545 5545 5546 5549 5549 5548 5548 5547 5549 5547 5547 5548 5550 5551
5548 5546 5542 5527 5545 5537 5523 5548 5539 5531 5532 5518 5512 5511 5519 5521 5519 5516 5515 5516 5516 5517 5516 5520 5523 5523 5521 5518 5518 5522 5523 5521 5521 5524 5526 5527 5528 5528 5529 5528 5529 5531 5532 5531
5529 5528 5518 5508 5519 5502 5518 5525 5516 5509 5504 5495 5490 5488 5491 5494 5492 5495 5496 5491 5493 5495 5495 5495 5496 5497 5496 5496 5498 5501 5499 5499 5499 5498 5501 5502 5506 5506 5508 5508 5509 5510 5510 5510
5511 5508 5498 5491 5488 5483 5491 5495 5489 5483 5481 5471 5467 5467 5466 5467 5468 5475 5468 5465 5470 5471 5471 5470 5472 5472 5473 5473 5472 5475 5474 5473 5471 5475 5476 5478 5482 5483 5484 5486 5486 5486 5487 5488
5493 5485 5476 5474 5467 5459 5469 5469 5466 5459 5449 5446 5445 5441 5441 5439 5438 5453 5438 5439 5440 5441 5440 5442 5442 5444 5445 5448 5449 5449 5449 5449 5449 5452 5453 5455 5456 5458 5460 5463 5465 5467 5468 5467
5472 5465 5457 5453 5444 5439 5446 5445 5443 5437 5435 5421 5421 5417 5418 5419 5416 5425 5421 5418 5416 5416 5414 5413 5415 5420 5422 5421 5423 5426 5426 5425 5426 5427 5429 5431 5434 5436 5438 5440 5442 5443 5443 5444
5442 5440 5440 5436 5427 5422 5427 5425 5422 5412 5407 5404 5399 5397 5392 5390 5391 5392 5396 5393 5391 5390 5391 5392 5397 5396 5397 5395 5395 5400 5401 5399 5400 5404 5406 5408 5410 5413 5414 5416 5416 5416 5419 5423
5418 5422 5415 5411 5405 5404 5407 5400 5394 5388 5387 5386 5377 5372 5365 5363 5362 5362 5360 5364 5365 5363 5364 5364 5368 5373 5372 5371 5369 5377 5376 5376 5374 5376 5381 5384 5387 5390 5393 5395 5396 5397 5400 5402
5406 5405 5392 5388 5396 5386 5382 5379 5371 5365 5364 5361 5357 5351 5343 5340 5340 5337 5336 5337 5335 5334 5332 5333 5337 5343 5345 5342 5344 5345 5348 5347 5347 5352 5356 5360 5363 5367 5370 5374 5376 5378 5381 5383
5390 5383 5379 5367 5372 5363 5361 5358 5351 5345 5343 5340 5336 5331 5325 5318 5318 5310 5310 5307 5304 5303 5303 5300 5301 5306 5315 5314 5316 5314 5314 5317 5321 5328 5329 5335 5340 5343 5347 5351 5355 5357 5360 5362
5369 5364 5356 5349 5353 5343 5339 5340 5335 5332 5327 5321 5317 5314 5308 5299 5294 5287 5286 5282 5277 5274 5272 5269 5269 5270 5278 5278 5285 5282 5282 5285 5290 5296 5301 5307 5313 5318 5322 5326 5330 5334 5337 5340